Wheaton NDB, MN

8:27 AM CDT on April 30, 2017 (GMT -0500)
Wheaton Municipal

Weather History for KETH - March, 2014

Change the Weather History Date:

Tuesday, March 4, 2014

  Actual Average Record
Temperature  
Mean Temperature 14 °F -  
Max Temperature 17 °F 34 °F 61 °F (1968)
Min Temperature 10 °F 14 °F -14 °F (1952)
Degree Days  
Heating Degree Days 52    
Moisture  
Dew Point 8 °F    
Average Humidity 78    
Maximum Humidity 86    
Minimum Humidity 68    
Precipitation  
Precipitation 0.00 in - - ()
Sea Level Pressure  
Sea Level Pressure 30.20 in    
Wind  
Wind Speed 7 mph (East)    
Max Wind Speed 12 mph    
Max Gust Speed -    
Visibility 9 miles    
Events Snow    
Averages and records for this station are not official NWS values.
T = Trace of Precipitation, MM = Missing Value Source: NWS Daily Summary

Daily Weather History Graph

Daily Weather History Graph

Search for Another Location

Airport or City:

Trip Planner

Search our weather history database for the weather conditions in past years. The results will help you decide how hot, cold, wet, or windy it might be!

Date:

Astronomy

Mar. 04, 2014 Rise Set
Actual Time 6:59 AM CST 6:17 PM CST
Civil Twilight 6:29 AM CST 6:46 PM CST
Nautical Twilight 5:55 AM CST 7:21 PM CST
Astronomical Twilight 5:20 AM CST 7:56 PM CST
Moon 8:33 AM CST (3/4) 10:40 PM CST (3/4)
Length of Visible Light 12h 17m
Length of Day
11h 17m
Waxing Crescent, 15% of the Moon is Illuminated
Mar 4
Waxing Crescent
Mar 8
First Quarter
Mar 16
Full
Mar 23
Last Quarter
Mar 30
New

Hourly Weather History & Observations

Time (CST) Temp. Windchill Dew Point Humidity Pressure Visibility Wind Dir Wind Speed Gust Speed Precip Events Conditions
12:14 AM 12.2 °F 1.7 °F 6.8 °F 79% 30.16 in 10.0 mi ESE 6.9 mph - N/A   Overcast
12:34 AM 12.2 °F -0.2 °F 6.8 °F 79% 30.15 in 10.0 mi ESE 9.2 mph - N/A   Overcast
12:54 AM 12.2 °F 0.7 °F 6.8 °F 79% 30.16 in 10.0 mi ESE 8.1 mph - N/A   Overcast
1:15 AM 12.2 °F 0.7 °F 6.8 °F 79% 30.16 in 10.0 mi SE 8.1 mph - N/A   Overcast
1:34 AM 12.2 °F 1.7 °F 6.8 °F 79% 30.16 in 10.0 mi ESE 6.9 mph - N/A   Overcast
1:52 AM 12.2 °F 2.9 °F 6.8 °F 79% 30.18 in 10.0 mi ESE 5.8 mph - N/A   Overcast
2:08 AM 12.2 °F 1.7 °F 6.8 °F 79% 30.17 in 10.0 mi ESE 6.9 mph - N/A   Overcast
2:53 AM 12.2 °F 0.7 °F 6.8 °F 79% 30.16 in 10.0 mi East 8.1 mph - N/A   Overcast
3:14 AM 12.2 °F 0.7 °F 6.8 °F 79% 30.16 in 10.0 mi East 8.1 mph - N/A   Overcast
3:34 AM 12.2 °F 0.7 °F 6.8 °F 79% 30.16 in 10.0 mi East 8.1 mph - N/A   Overcast
3:54 AM 10.4 °F -3.3 °F 6.8 °F 85% 30.15 in 10.0 mi East 10.4 mph - N/A   Overcast
4:14 AM 10.4 °F -2.4 °F 6.8 °F 85% 30.14 in 5.0 mi East 9.2 mph - N/A Snow Light Snow
4:34 AM 10.4 °F -1.5 °F 6.8 °F 85% 30.15 in 5.0 mi East 8.1 mph - N/A Snow Light Snow
4:54 AM 10.4 °F -0.4 °F 6.8 °F 85% 30.16 in 10.0 mi East 6.9 mph - N/A   Overcast
5:14 AM 10.4 °F -1.5 °F 6.8 °F 85% 30.16 in 10.0 mi East 8.1 mph - N/A   Overcast
5:34 AM 10.4 °F -0.4 °F 6.8 °F 85% 30.16 in 10.0 mi East 6.9 mph - N/A   Overcast
5:54 AM 10.4 °F -1.5 °F 6.8 °F 85% 30.15 in 10.0 mi ENE 8.1 mph - N/A   Overcast
6:14 AM 10.4 °F -1.5 °F 6.8 °F 85% 30.16 in 10.0 mi East 8.1 mph - N/A   Overcast
6:32 AM 10.4 °F -1.5 °F 6.8 °F 85% 30.16 in 10.0 mi East 8.1 mph - N/A   Overcast
6:37 AM 10.4 °F -1.5 °F 6.8 °F 85% 30.17 in 10.0 mi East 8.1 mph - N/A   Overcast
7:15 AM 10.4 °F -0.4 °F 6.8 °F 85% 30.18 in 10.0 mi ENE 6.9 mph - N/A   Overcast
7:34 AM 10.4 °F 0.8 °F 6.8 °F 85% 30.17 in 10.0 mi East 5.8 mph - N/A   Overcast
7:54 AM 10.4 °F 0.8 °F 6.8 °F 85% 30.18 in 10.0 mi ENE 5.8 mph - N/A   Overcast
8:14 AM 10.4 °F -0.4 °F 6.8 °F 85% 30.19 in 10.0 mi East 6.9 mph - N/A   Overcast
8:34 AM 12.2 °F 2.9 °F 6.8 °F 79% 30.19 in 10.0 mi ENE 5.8 mph - N/A   Overcast
8:54 AM 12.2 °F 0.7 °F 6.8 °F 79% 30.19 in 10.0 mi ENE 8.1 mph - N/A   Scattered Clouds
9:14 AM 12.2 °F 1.7 °F 6.8 °F 79% 30.19 in 10.0 mi NE 6.9 mph - N/A   Clear
9:34 AM 12.2 °F 2.9 °F 6.8 °F 79% 30.19 in 10.0 mi ENE 5.8 mph - N/A   Clear
9:54 AM 12.2 °F 0.7 °F 6.8 °F 79% 30.20 in 10.0 mi NE 8.1 mph - N/A   Clear
10:14 AM 14.0 °F 2.9 °F 6.8 °F 73% 30.19 in 10.0 mi ENE 8.1 mph - N/A   Clear
10:34 AM 15.8 °F 4.2 °F 6.8 °F 68% 30.19 in 10.0 mi East 9.2 mph - N/A   Clear
10:54 AM 15.8 °F 5.1 °F 6.8 °F 68% 30.21 in 10.0 mi ENE 8.1 mph - N/A   Clear
11:14 AM 15.8 °F 5.1 °F 6.8 °F 68% 30.19 in 10.0 mi ENE 8.1 mph - N/A   Clear
11:34 AM 15.8 °F 3.4 °F 6.8 °F 68% 30.18 in 10.0 mi East 10.4 mph - N/A   Clear
11:54 AM 15.8 °F 2.7 °F 6.8 °F 68% 30.18 in 10.0 mi East 11.5 mph - N/A   Clear
12:14 PM 15.8 °F 4.2 °F 6.8 °F 68% 30.19 in 10.0 mi NE 9.2 mph - N/A   Clear
12:34 PM 15.8 °F 5.1 °F 6.8 °F 68% 30.19 in 10.0 mi NE 8.1 mph - N/A   Clear
12:54 PM 15.8 °F 4.2 °F 6.8 °F 68% 30.18 in 10.0 mi ENE 9.2 mph - N/A   Clear
1:14 PM 15.8 °F 4.2 °F 6.8 °F 68% 30.17 in 10.0 mi ENE 9.2 mph - N/A   Clear
1:34 PM 15.8 °F 3.4 °F 6.8 °F 68% 30.17 in 10.0 mi East 10.4 mph - N/A   Clear
1:54 PM 15.8 °F 4.2 °F 8.6 °F 73% 30.17 in 10.0 mi ENE 9.2 mph - N/A Snow Light Snow
2:14 PM 15.8 °F 4.2 °F 8.6 °F 73% 30.17 in 7.0 mi NE 9.2 mph - N/A Snow Light Snow
2:34 PM 15.8 °F 4.2 °F 10.4 °F 79% 30.17 in 4.0 mi East 9.2 mph - N/A Snow Light Snow
2:54 PM 15.8 °F 5.1 °F 8.6 °F 73% 30.18 in 4.0 mi ENE 8.1 mph - N/A Snow Light Snow
3:14 PM 15.8 °F 3.4 °F 10.4 °F 79% 30.18 in 2.5 mi ENE 10.4 mph - N/A Snow Light Snow
3:34 PM 15.8 °F 6.1 °F 10.4 °F 79% 30.19 in 4.0 mi NE 6.9 mph - N/A Snow Light Snow
3:54 PM 17.6 °F 8.2 °F 10.4 °F 73% 30.19 in 5.0 mi ENE 6.9 mph - N/A Snow Light Snow
4:14 PM 17.6 °F 7.3 °F 10.4 °F 73% 30.20 in 7.0 mi ENE 8.1 mph - N/A Snow Light Snow
4:34 PM 17.6 °F 7.3 °F 10.4 °F 73% 30.19 in 10.0 mi ENE 8.1 mph - N/A   Scattered Clouds
4:54 PM 17.6 °F 5.7 °F 10.4 °F 73% 30.19 in 10.0 mi East 10.4 mph - N/A Snow Light Snow
5:14 PM 17.6 °F 7.3 °F 12.2 °F 79% 30.20 in 7.0 mi ESE 8.1 mph - N/A Snow Light Snow
5:34 PM 17.6 °F 7.3 °F 12.2 °F 79% 30.20 in 10.0 mi ESE 8.1 mph - N/A Snow Light Snow
5:54 PM 17.6 °F 6.4 °F 10.4 °F 73% 30.21 in 10.0 mi East 9.2 mph - N/A Snow Light Snow
6:14 PM 17.6 °F 8.2 °F 10.4 °F 73% 30.23 in 7.0 mi ESE 6.9 mph - N/A Snow Light Snow
6:34 PM 15.8 °F 6.1 °F 10.4 °F 79% 30.24 in 7.0 mi East 6.9 mph - N/A Snow Light Snow
6:54 PM 15.8 °F 6.1 °F 10.4 °F 79% 30.25 in 10.0 mi East 6.9 mph - N/A   Scattered Clouds
7:14 PM 15.8 °F 7.2 °F 10.4 °F 79% 30.26 in 10.0 mi East 5.8 mph - N/A Snow Light Snow
7:34 PM 15.8 °F 8.6 °F 10.4 °F 79% 30.27 in 5.0 mi ENE 4.6 mph - N/A Snow Light Snow
7:54 PM 15.8 °F 8.6 °F 10.4 °F 79% 30.27 in 4.0 mi ENE 4.6 mph - N/A Snow Light Snow
8:14 PM 15.8 °F 10.2 °F 10.4 °F 79% 30.27 in 5.0 mi ENE 3.5 mph - N/A Snow Light Snow
8:34 PM 15.8 °F 10.2 °F 10.4 °F 79% 30.27 in 7.0 mi ENE 3.5 mph - N/A Snow Light Snow
8:54 PM 15.8 °F - 10.4 °F 79% 30.28 in 7.0 mi Calm Calm - N/A Snow Light Snow
9:14 PM 15.8 °F - 10.4 °F 79% 30.28 in 10.0 mi Calm Calm - N/A Snow Light Snow
9:34 PM 15.8 °F - 12.2 °F 86% 30.28 in 10.0 mi Calm Calm - N/A   Mostly Cloudy
9:54 PM 15.8 °F - 10.4 °F 79% 30.29 in 10.0 mi Calm Calm - N/A   Scattered Clouds
10:14 PM 15.8 °F - 10.4 °F 79% 30.29 in 10.0 mi Calm Calm - N/A   Mostly Cloudy
10:34 PM 15.8 °F - 10.4 °F 79% 30.30 in 10.0 mi Calm Calm - N/A   Overcast
10:54 PM 15.8 °F 10.2 °F 10.4 °F 79% 30.30 in 10.0 mi NE 3.5 mph - N/A   Overcast
11:14 PM 15.8 °F - 10.4 °F 79% 30.30 in 10.0 mi Calm Calm - N/A   Overcast
11:34 PM 15.8 °F - 10.4 °F 79% 30.30 in 10.0 mi Calm Calm - N/A   Overcast
11:54 PM 15.8 °F 10.2 °F 10.4 °F 79% 30.31 in 10.0 mi ENE 3.5 mph - N/A   Overcast